Almeria, Spain

6:38 AM CEST en Septiembre 20, 2018 (GMT +0200)
Almeria

Tiempo Historia de LEAM - Septiembre, 2018

Change the Weather History Date:

Viernes, Septiembre 14, 2018

  Actual Average Record
Temperature  
Temperatura media 81 ° F -  
Temperatura máxima 89 ° F 75 ° F 93 ° F (2011)
Temperatura mínima 73 ° F 63 ° F 62 ° F (2006)
Cooling Degree Days 16    
Growing Degree Days 31 (Base 50)    
Moisture  
Punto de rocío 69 ° F    
Average Humidity 71    
Maximum Humidity 94    
Minimum Humidity 40    
Precipitación  
Precipitación 0.02 pul 0.02 pul - ()
Presión al nivel del mar  
Presión al nivel del mar 30.03 pul    
Viento  
Velocidad del viento 6 mph ()    
Velocidad máxima del viento 18 mph    
Max Gust Speed -    
Visibilidad 6.4 Millas    
Eventos      
Averages and records for this station are not official NWS values.
T = Trace of Precipitation, MM = Missing Value Source: Averaged Metar Reports

Daily Weather History Graph

Daily Weather History Graph

Search for Another Location

Airport or City:

Astronomía

Sep. 14, 2018 Salida Puesta
Hora real 7:50 AM CEST 8:18 PM CEST
Crepúsculo civil 7:24 AM CEST 8:44 PM CEST
Crepúsculo náutico 6:54 AM CEST 9:15 PM CEST
Crepúsculo astronómico 6:22 AM CEST 9:46 PM CEST
Luna 12:44 PM CEST (9/14) 11:35 PM CEST (9/14)
Horas de luz 13h 20m
Horas de luz
12h 28m
Creciente, 25% of the Moon is Illuminated
Sep 14
Creciente
Sep 17
Cuarto creciente
Sep 25
Luna llena
Oct 2
Cuarto menguante
Oct 9
Nueva

Hourly Weather History & Observations

Hora (CEST) Temp. Índice de calor Punto de rocío Humedad Presión Visibilidad Wind Dir Velocidad del viento Velocidad de ráfagas Precip Eventos Condiciones
12:00 AM 77.0 ° F - 73.4 ° F 89% 30.04 pul - Sur 2.3 mph - N/A   Despejado
12:30 AM 77.0 ° F - 73.4 ° F 89% 30.04 pul - Este 3.5 mph - N/A   Despejado
1:00 AM 76 ° F - 74 ° F 91% 30.06 pul - SO 3.5 mph - -  
1:00 AM 75.2 ° F - 73.4 ° F 94% 30.06 pul - SO 2.3 mph - N/A   Despejado
1:30 AM 75.2 ° F - 73.4 ° F 94% 30.06 pul - SO 2.3 mph - N/A   Despejado
2:00 AM 76 ° F - 72 ° F 85% 30.06 pul - NNE 2.3 mph - -  
2:00 AM 77.0 ° F - 71.6 ° F 83% 30.04 pul - Variable 2.3 mph - N/A   Despejado
2:30 AM 75.2 ° F - 71.6 ° F 89% 30.04 pul - Variable 2.3 mph - N/A   Despejado
3:00 AM 75 ° F - 72 ° F 89% 30.05 pul - NE 3.5 mph - -  
3:00 AM 75.2 ° F - 71.6 ° F 89% 30.04 pul - Variable 2.3 mph - N/A   Despejado
3:30 AM 75.2 ° F - 71.6 ° F 89% 30.04 pul - Variable 2.3 mph - N/A   Despejado
4:00 AM 75 ° F - 72 ° F 88% 30.05 pul - ONO 2.3 mph - -  
4:00 AM 75.2 ° F - 71.6 ° F 89% 30.04 pul - ONO 1.2 mph - N/A   Despejado
4:30 AM 75.2 ° F - 71.6 ° F 89% 30.04 pul - NO 4.6 mph - N/A   Despejado
5:00 AM 75 ° F - 71 ° F 85% 30.04 pul 9 mi Norte 5.8 mph - -   Nubes dispersas
5:00 AM 75.2 ° F - 69.8 ° F 83% 30.04 pul 6.2 mi Norte 4.6 mph - N/A   Parcialmente nublado
5:30 AM 75.2 ° F - 69.8 ° F 83% 30.01 pul 6.2 mi Norte 4.6 mph - N/A   Parcialmente nublado
6:00 AM 75 ° F - 71 ° F 83% 30.02 pul - Norte 5.8 mph - -  
6:00 AM 75.2 ° F - 69.8 ° F 83% 30.01 pul 6.2 mi Norte 5.8 mph - N/A   Parcialmente nublado
6:30 AM 75.2 ° F - 69.8 ° F 83% 30.01 pul 6.2 mi Norte 5.8 mph - N/A   Parcialmente nublado
7:00 AM 74 ° F - 70 ° F 83% 30.03 pul - Norte 3.5 mph - -  
7:00 AM 75.2 ° F - 69.8 ° F 83% 30.01 pul 6.2 mi Norte 3.5 mph - N/A   Parcialmente nublado
7:30 AM 75.2 ° F - 68.0 ° F 78% 30.01 pul 6.2 mi NNO 4.6 mph - N/A   Parcialmente nublado
8:00 AM 74 ° F - 69 ° F 80% 30.04 pul 8 mi NNO 5.8 mph - -   Nubes dispersas
8:00 AM 75.2 ° F - 68.0 ° F 78% 30.04 pul 6.2 mi NNO 4.6 mph - N/A   Parcialmente nublado
8:30 AM 73.4 ° F - 68.0 ° F 83% 30.04 pul 6.2 mi NNO 2.3 mph - N/A   Parcialmente nublado
9:00 AM 76 ° F - 69 ° F 75% 30.05 pul - NNO 6.9 mph - -  
9:00 AM 75.2 ° F - 68.0 ° F 78% 30.04 pul 6.2 mi Norte 5.8 mph - N/A   Parcialmente nublado
9:30 AM 77.0 ° F - 68.0 ° F 74% 30.04 pul 6.2 mi NNO 5.8 mph - N/A   Parcialmente nublado
10:00 AM 78 ° F - 69 ° F 67% 30.06 pul - NNO 6.9 mph - -  
10:00 AM 77.0 ° F - 68.0 ° F 74% 30.04 pul 6.2 mi NNO 6.9 mph - N/A   Parcialmente nublado
10:30 AM 78.8 ° F - 68.0 ° F 69% 30.06 pul 6.2 mi NO 4.6 mph - N/A   Parcialmente nublado
11:00 AM 82 ° F - 70 ° F 60% 30.07 pul 9 mi Este 2.3 mph - -   Nubes dispersas
11:00 AM 80.6 ° F 83.9 ° F 69.8 ° F 70% 30.06 pul 6.2 mi Variable 2.3 mph - N/A   Parcialmente nublado
11:30 AM 82.4 ° F 85.4 ° F 68.0 ° F 62% 30.06 pul 6.2 mi ENE 10.4 mph - N/A   Parcialmente nublado
12:00 PM 86 ° F - 70 ° F 49% 30.07 pul - Este 12.7 mph - -  
12:00 PM 84.2 ° F 87.3 ° F 68.0 ° F 58% 30.06 pul 6.2 mi Este 11.5 mph - N/A   Nubes dispersas
12:30 PM 86.0 ° F 89.4 ° F 68.0 ° F 55% 30.06 pul 6.2 mi Este 10.4 mph - N/A   Parcialmente nublado
1:00 PM 87 ° F - 70 ° F 47% 30.06 pul - Este 11.5 mph - -  
1:00 PM 86.0 ° F 89.4 ° F 68.0 ° F 55% 30.06 pul 6.2 mi Este 11.5 mph - N/A   Nubes dispersas
1:30 PM 87.8 ° F 91.4 ° F 68.0 ° F 52% 30.04 pul 6.2 mi ESE 11.5 mph - N/A   Nubes dispersas
2:00 PM 89.6 ° F 92.2 ° F 66.2 ° F 46% 30.04 pul 6.2 mi Este 12.7 mph - N/A   Parcialmente nublado
2:30 PM 89.6 ° F 91.1 ° F 64.4 ° F 43% 30.01 pul 6.2 mi Este 15.0 mph - N/A   Parcialmente nublado
3:00 PM 89 ° F - 68 ° F 41% 30.01 pul - Este 15.0 mph - -  
3:00 PM 89.6 ° F 93.4 ° F 68.0 ° F 49% 30.01 pul 6.2 mi Este 15.0 mph - N/A   Parcialmente nublado
4:00 PM 89 ° F - 68 ° F 41% 30.00 pul - Este 18.4 mph - -  
4:30 PM 87.8 ° F 91.4 ° F 68.0 ° F 52% 29.98 pul 6.2 mi Este 16.1 mph - N/A   Parcialmente nublado
5:00 PM 87.8 ° F 90.4 ° F 66.2 ° F 49% 29.98 pul 6.2 mi Este 16.1 mph - N/A   Parcialmente nublado
5:30 PM 87.8 ° F 90.4 ° F 66.2 ° F 49% 29.98 pul 6.2 mi Este 15.0 mph - N/A   Parcialmente nublado
6:00 PM 88 ° F - 67 ° F 40% 29.99 pul - Este 15.0 mph - -  
6:00 PM 86.0 ° F 88.2 ° F 66.2 ° F 51% 29.98 pul 6.2 mi Este 15.0 mph - N/A   Parcialmente nublado
6:30 PM 84.2 ° F 86.6 ° F 66.2 ° F 55% 29.98 pul 6.2 mi Este 15.0 mph - N/A   Parcialmente nublado
7:00 PM 83 ° F - 68 ° F 52% 29.99 pul - Este 13.8 mph - -  
7:00 PM 82.4 ° F 84.6 ° F 66.2 ° F 58% 29.98 pul 6.2 mi Este 13.8 mph - N/A   Parcialmente nublado
7:30 PM 82.4 ° F 85.4 ° F 68.0 ° F 62% 30.01 pul 6.2 mi ESE 13.8 mph - N/A   Parcialmente nublado
8:00 PM 80.6 ° F 83.9 ° F 69.8 ° F 70% 30.01 pul 6.2 mi ESE 12.7 mph - N/A   Nubes dispersas
8:30 PM 78.8 ° F - 68.0 ° F 69% 30.01 pul 6.2 mi Este 10.4 mph - N/A   Nubes dispersas
9:00 PM 79 ° F - 70 ° F 68% 30.02 pul - Este 8.1 mph - -  
9:00 PM 78.8 ° F - 69.8 ° F 74% 30.01 pul 6.2 mi Este 8.1 mph - N/A   Nubes dispersas
9:30 PM 78.8 ° F - 69.8 ° F 74% 30.01 pul 6.2 mi Este 6.9 mph - N/A   Nubes dispersas
10:00 PM 79 ° F - 70 ° F 68% 30.03 pul - ENE 6.9 mph - -  
10:00 PM 78.8 ° F - 69.8 ° F 74% 30.01 pul 6.2 mi ENE 5.8 mph - N/A   Parcialmente nublado
10:30 PM 77.0 ° F - 69.8 ° F 78% 30.01 pul 6.2 mi Este 4.6 mph - N/A   Parcialmente nublado
11:00 PM 78 ° F - 71 ° F 72% 30.04 pul - Este 5.8 mph - -  
11:00 PM 77.0 ° F - 69.8 ° F 78% 30.04 pul 6.2 mi Este 5.8 mph - N/A   Desconocido
11:30 PM 77.0 ° F - 69.8 ° F 78% 30.04 pul 6.2 mi Este 10.4 mph - N/A   Desconocido